General Abelardo L. Rodríguez International Airport
MMTJ : now visible

Airfield :











YOU CAN JOIN US ON...

 
LOGIN :

Register | Disclaimer

   EN    FR    IT 

 









Legend :    VFR   Marginal VFR   IFR   Intensive IFR   Very Intensive IFR
Visi :
Ceiling :
>= 8 km
>= 3000ft
5 to 8 km
1000 to 3000 ft
1500m to 5 km
500 to 1000 ft
800 to 1500m
200 to 500 ft
< 800m
< 200 ft
Symbols :   Thunderstorms  Fog  Heavy snow  Heavy precipitations  Wind > 20 kt






- Airport Elevation : 489 ft
- IATA code : TIJ


MMTJ - General Abelardo L. Rodríguez International

CURRENT METAR :
  • 121740Z 24003KT 5SM FEW015 19/14 A3005 RMK SLP/// 57006 910 8/500 HZY

EXPIRED METARs :
  • 121702Z 00000KT 5SM FEW015 18/13 A3004 RMK 8/500 HZY
  • 121613Z 26003KT 4SM BKN015 16/13 A3004 RMK 8/500 HZY
  • 121541Z 00000KT 4SM OVC012 16/13 A3005 RMK 8/6// HZY

TAF TAF MMTJ
Valid from the 12 at 18:00 until the 14 at 00:00 UTC


121647Z 1218/1324 300010KT P6SM SKC TX20/1221Z TN13/1312Z
FM130300 30005KT 5SM HZ SCT015
FM130600 00000KT 4SM HZ OVC010
FM131700 30010KT P6SM SKC
MMFR FIR / North America



MET'MAP, your aeronautical weather chart ! - Copyright ORBIFLY December 2007 - Disclaimer

ORBIFLY MET'MAP TEAM :

Programming & Development : Alexandra Zaïnal
Concept & original design : Baudouin d'Aumeries
Assistance for programming : Marc-Olivier Méhu
Technical & hardware support : Manuel Goepfert

Contact : metmap@orbifly.com




SOURCES & CREDITS :

   NOAA       Earth
Advisory